KI5QWQ Weather Reports


time (UTC)temp
C
wind
direction
speed
KPH
gust
KPH
rain 1hr
cm
rain 24hr
cm
rain mn
cm
humidity
%
barometer
mb
20260510174913 -17 116 6.4 14.5 0.00 0.00 0.00 1017.2
20260510174412 -17 152 6.4 12.9 0.00 0.00 0.00 1017.2
20260510173908 -17 173 3.2 9.7 0.00 0.00 0.00 1017.2
20260510173404 -17 200 4.8 9.7 0.00 0.00 0.00 1017.2
20260510172900 -17 184 4.8 6.4 0.00 0.00 0.00 1017.2
20260510172356 -17 161 3.2 9.7 0.00 0.00 0.00 1017.2
20260510171852 -17 92 4.8 8.0 0.00 0.00 0.00 1017.2
20260510171350 -17 91 1.6 12.9 0.00 0.00 0.00 1017.2
20260510170847 -17 151 3.2 9.7 0.00 0.00 0.00 1017.2
20260510170343 -17 252 3.2 8.0 0.00 0.00 0.00 1017.2
20260510165838 -17 176 3.2 6.4 0.00 0.00 0.00 1017.2
20260510165335 -17 149 1.6 12.9 0.00 0.00 0.00 1017.5
20260510164833 -17 154 3.2 12.9 0.00 0.00 0.00 1017.5
20260510164330 -17 123 8.0 9.7 0.00 0.00 0.00 1017.5
20260510163829 -17 161 4.8 11.3 0.00 0.00 0.00 1017.5
20260510163326 -17 224 0.0 6.4 0.00 0.00 0.00 1017.5
20260510162820 -17 145 1.6 9.7 0.00 0.00 0.00 1017.5
20260510162318 -17 176 4.8 9.7 0.00 0.00 0.00 1017.5
20260510161813 -17 121 1.6 9.7 0.00 0.00 0.00 1017.4
20260510161309 -17 145 3.2 8.0 0.00 0.00 0.00 1017.4
20260510160806 -17 160 0.0 12.9 0.00 0.00 0.00 1017.4
20260510160303 -17 194 3.2 9.7 0.00 0.00 0.00
20260510155757 -17 164 6.4 9.7 0.00 0.00 0.00
20260510155254 -17 101 1.6 6.4 0.00 0.00 0.00
20260510154749 -17 146 3.2 9.7 0.00 0.00 0.00
20260510154246 -17 42 0.0 6.4 0.00 0.00 0.00
20260510153741 -17 173 3.2 9.7 0.00 0.00 0.00
20260510153237 -17 156 1.6 8.0 0.00 0.00 0.00
20260510152734 -17 189 3.2 8.0 0.00 0.00 0.00
20260510152230 -17 158 4.8 8.0 0.00 0.00 0.00
20260510151727 -17 157 1.6 6.4 0.00 0.00 0.00
20260510151226 -17 176 4.8 6.4 0.00 0.00 0.00
20260510150721 -17 221 1.6 11.3 0.00 0.00 0.00
20260510150216 -17 145 3.2 6.4 0.00 0.00 0.00
20260510145713 -17 76 1.6 8.0 0.00 0.00 0.00
20260510145209 -17 190 3.2 9.7 0.00 0.00 0.00
20260510144705 -17 164 1.6 9.7 0.00 0.00 0.00
20260510144202 -17 89 1.6 4.8 0.00 0.00 0.00
20260510143657 -17 165 0.0 6.4 0.00 0.00 0.00
20260510143154 -17 155 4.8 9.7 0.00 0.00 0.00
20260510142650 -17 218 4.8 8.0 0.00 0.00 0.00 1016.6
20260510142147 -17 162 1.6 6.4 0.00 0.00 0.00 1016.6
20260510141644 -17 157 3.2 8.0 0.00 0.00 0.00 1016.6
20260510141142 -17 257 0.0 4.8 0.00 0.00 0.00 1016.6
20260510140638 -17 151 1.6 4.8 0.00 0.00 0.00 1016.6
20260510140137 -17 202 0.0 6.4 0.00 0.00 0.00 1016.6
20260510135633 -17 133 1.6 8.0 0.00 0.00 0.00 1016.6
20260510135129 -17 136 1.6 6.4 0.00 0.00 0.00 1016.6
20260510134626 -17 103 0.0 4.8 0.00 0.00 0.00 1016.6
20260510134123 -17 132 4.8 8.0 0.00 0.00 0.00 1016.6
20260510133620 -17 184 1.6 8.0 0.00 0.00 0.00 1016.6
20260510133115 -17 121 3.2 4.8 0.00 0.00 0.00 1016.6
20260510132612 -17 98 3.2 4.8 0.00 0.00 0.00
20260510132109 -17 161 1.6 4.8 0.00 0.00 0.00
20260510131607 -17 180 0.0 4.8 0.00 0.00 0.00
20260510131104 -17 137 3.2 6.4 0.00 0.00 0.00 1015.4
20260510130600 -17 167 0.0 4.8 0.00 0.00 0.00 1015.4
20260510130058 -17 158 1.6 6.4 0.00 0.00 0.00 1015.4
20260510125554 -17 180 0.0 6.4 0.00 0.00 0.00 1015.4
20260510125050 -17 207 1.6 4.8 0.00 0.00 0.00 1015.4
20260510124547 -17 182 1.6 3.2 0.00 0.00 0.00 1015.4
20260510124044 -17 183 1.6 4.8 0.00 0.00 0.00 1015.4
20260510123539 -17 141 3.2 4.8 0.00 0.00 0.00 1015.4
20260510123036 -17 154 1.6 3.2 0.00 0.00 0.00 1015.4
20260510122531 -17 131 0.0 3.2 0.00 0.00 0.00 1015.4
20260510122028 -17 154 0.0 1.6 0.00 0.00 0.00 1015.4
20260510121525 -17 129 0.0 3.2 0.00 0.00 0.00 1015.3
20260510121022 -17 124 0.0 1.6 0.00 0.00 0.00 1014.6
20260510120519 -17 186 0.0 1.6 0.00 0.00 0.00 1014.6
20260510120015 -17 141 1.6 4.8 0.00 0.00 0.00 1014.6
20260510115512 -17 113 0.0 3.2 0.00 0.00 0.00 1014.6
20260510115009 -17 117 0.0 1.6 0.00 0.00 0.00 1014.6
20260510114505 -17 142 0.0 1.6 0.00 0.00 0.00 1014.6
20260510114001 -17 142 0.0 1.6 0.00 0.00 0.00 1014.6
20260510113456 -17 205 0.0 1.6 0.00 0.00 0.00 1014.6
20260510112954 -17 154 0.0 1.6 0.00 0.00 0.00 1014.6
20260510112451 -17 172 0.0 1.6 0.00 0.00 0.00
20260510111947 -17 255 0.0 1.6 0.00 0.00 0.00
20260510111443 -17 242 0.0 1.6 0.00 0.00 0.00
20260510110940 -17 129 0.0 1.6 0.00 0.00 0.00
20260510110436 -17 205 0.0 1.6 0.00 0.00 0.00
20260510105932 -17 215 0.0 1.6 0.00 0.00 0.00
20260510105427 -17 230 0.0 1.6 0.00 0.00 0.00
20260510104922 -17 212 0.0 1.6 0.00 0.00 0.00
20260510104420 -17 189 0.0 1.6 0.00 0.00 0.00
20260510103916 -17 129 0.0 1.6 0.00 0.00 0.00
20260510103414 -17 124 0.0 3.2 0.00 0.00 0.00
20260510102914 -17 154 0.0 1.6 0.00 0.00 0.00
20260510102410 -17 154 0.0 3.2 0.00 0.00 0.00
20260510101902 -17 194 1.6 4.8 0.00 0.00 0.00
20260510101400 -17 158 0.0 3.2 0.00 0.00 0.00
20260510100856 -17 186 0.0 3.2 0.00 0.00 0.00
20260510100354 -17 168 1.6 3.2 0.00 0.00 0.00
20260510095850 -17 125 0.0 3.2 0.00 0.00 0.00
20260510095345 -17 230 0.0 3.2 0.00 0.00 0.00
20260510094845 -17 164 0.0 3.2 0.00 0.00 0.00
20260510094340 -17 201 1.6 6.4 0.00 0.00 0.00
20260510093837 -17 164 0.0 3.2 0.00 0.00 0.00
20260510093332 -17 205 0.0 3.2 0.00 0.00 0.00
20260510092829 -17 207 3.2 3.2 0.00 0.00 0.00
20260510092325 -17 336 1.6 4.8 0.00 0.00 0.00
20260510091821 -17 199 1.6 3.2 0.00 0.00 0.00
20260510091318 -17 184 1.6 3.2 0.00 0.00 0.00
20260510090814 -17 212 3.2 4.8 0.00 0.00 0.00
20260510090311 -17 226 3.2 3.2 0.00 0.00 0.00
20260510085807 -17 209 0.0 3.2 0.00 0.00 0.00
20260510085301 -17 205 1.6 3.2 0.00 0.00 0.00
20260510084757 -17 157 3.2 4.8 0.00 0.00 0.00
20260510084254 -17 197 1.6 3.2 0.00 0.00 0.00
20260510083751 -17 205 1.6 6.4 0.00 0.00 0.00
20260510083248 -17 260 0.0 6.4 0.00 0.00 0.00
20260510082743 -17 213 1.6 4.8 0.00 0.00 0.00
20260510082240 -17 185 0.0 3.2 0.00 0.00 0.00
20260510081739 -17 241 0.0 3.2 0.00 0.00 0.00
20260510081236 -17 214 1.6 6.4 0.00 0.00 0.00
20260510080731 -17 173 1.6 8.0 0.00 0.00 0.00
20260510080227 -17 174 0.0 4.8 0.00 0.00 0.00
20260510075723 -17 86 0.0 4.8 0.00 0.00 0.00
20260510075221 -17 150 0.0 3.2 0.00 0.00 0.00
20260510074719 -17 170 1.6 1.6 0.00 0.00 0.00
20260510074215 -17 152 1.6 6.4 0.00 0.00 0.00
20260510073711 -17 76 0.0 3.2 0.00 0.00 0.00
20260510073207 -17 228 0.0 3.2 0.00 0.00 0.00
20260510072703 -17 230 0.0 1.6 0.00 0.00 0.00
20260510072200 -17 150 0.0 4.8 0.00 0.00 0.00
20260510071656 -17 177 3.2 6.4 0.00 0.00 0.00
20260510071153 -17 188 1.6 8.0 0.00 0.00 0.00
20260510070651 -17 185 1.6 3.2 0.00 0.00 0.00
20260510070148 -17 142 1.6 3.2 0.00 0.00 0.00
20260510065643 -17 224 0.0 3.2 0.00 0.00 0.00
20260510065139 -17 126 3.2 4.8 0.00 0.00 0.00
20260510064636 -17 188 1.6 8.0 0.00 0.00 0.00
20260510064133 -17 212 1.6 3.2 0.00 0.00 0.00
20260510063630 -17 176 1.6 6.4 0.00 0.00 0.00
20260510063127 -17 152 1.6 6.4 0.00 0.00 0.00
20260510062623 -17 180 0.0 4.8 0.00 0.00 0.00
20260510062118 -17 152 0.0 6.4 0.00 0.00 0.00
20260510061614 -17 182 3.2 8.0 0.00 0.00 0.00
20260510061112 -17 147 0.0 11.3 0.00 0.00 0.00
20260510060608 -17 199 4.8 11.3 0.00 0.00 0.00
20260510060105 -17 166 4.8 6.4 0.00 0.00 0.00
20260510055600 -17 158 1.6 4.8 0.00 0.00 0.00
20260510055059 -17 132 1.6 3.2 0.00 0.00 0.00
20260510054554 -17 199 0.0 4.8 0.00 0.00 0.00
20260510054050 -17 182 1.6 11.3 0.00 0.00 0.00
20260510053549 -17 129 0.0 1.6 0.00 0.00 0.00
20260510053047 -17 140 0.0 4.8 0.00 0.00 0.00
20260510052543 -17 197 0.0 3.2 0.00 0.00 0.00
20260510052039 -17 175 0.0 1.6 0.00 0.00 0.00
20260510051534 -17 150 0.0 4.8 0.00 0.00 0.00
20260510051031 -17 117 0.0 1.6 0.00 0.00 0.00
20260510050529 -17 142 0.0 3.2 0.00 0.00 0.00
20260510050026 -17 159 0.0 3.2 0.00 0.30 0.30
20260510045523 -17 242 0.0 3.2 0.00 0.30 0.30
20260510045019 -17 104 0.0 0.0 0.00 0.30 0.30
20260510044516 -17 129 0.0 1.6 0.00 0.30 0.30
20260510044013 -17 129 0.0 0.0 0.00 0.30 0.30
20260510043508 -17 129 0.0 0.0 0.00 0.30 0.30
20260510043004 -17 205 0.0 0.0 0.00 0.30 0.30
20260510042458 -17 205 0.0 0.0 0.00 0.30 0.30
20260510041953 -17 205 0.0 0.0 0.00 0.30 0.30
20260510041450 -17 205 0.0 0.0 0.00 0.30 0.30
20260510040948 -17 205 0.0 0.0 0.00 0.30 0.30
20260510040444 -17 217 0.0 0.0 0.00 0.30 0.30
20260510035940 -17 129 0.0 0.0 0.00 0.30 0.30
20260510035437 -17 129 0.0 1.6 0.00 0.30 0.30
20260510034936 -17 217 0.0 1.6 0.00 0.30 0.30
20260510034436 -17 230 0.0 0.0 0.00 0.30 0.30
20260510033932 -17 230 0.0 0.0 0.00 0.30 0.30
20260510033428 -17 230 0.0 0.0 0.00 0.30 0.30
20260510032925 -17 230 0.0 0.0 0.00 0.30 0.30
20260510032422 -17 230 0.0 0.0 0.00 0.30 0.30
20260510031917 -17 230 0.0 0.0 0.00 0.30 0.30
20260510031413 -17 230 0.0 1.6 0.00 0.30 0.30
20260510030907 -17 217 0.0 0.0 0.00 0.30 0.30
20260510030404 -17 212 0.0 0.0 0.00 0.30 0.30
20260510025901 -17 212 0.0 0.0 0.00 0.30 0.30
20260510025359 -17 191 0.0 1.6 0.00 0.30 0.30
20260510024856 -17 217 0.0 0.0 0.00 0.30 0.30
20260510024352 -17 230 0.0 1.6 0.00 0.30 0.30
20260510023848 -17 117 0.0 0.0 0.00 0.30 0.30
20260510023345 -17 117 0.0 1.6 0.00 0.30 0.30
20260510022842 -17 230 0.0 0.0 0.00 0.30 0.30
20260510022341 -17 230 0.0 0.0 0.00 0.30 0.30 1011.7
20260510021840 -17 230 0.0 0.0 0.00 0.30 0.30 1011.7
20260510021339 -17 230 0.0 0.0 0.00 0.30 0.30 1011.7
20260510020834 -17 230 0.0 0.0 0.00 0.30 0.30 1011.7
20260510020329 -17 230 0.0 0.0 0.00 0.30 0.30 1011.7
20260510015825 -17 230 0.0 1.6 0.00 0.30 0.30 1011.7
20260510015321 -17 235 0.0 0.0 0.00 0.30 0.30 1011.7
20260510014816 -17 235 0.0 0.0 0.00 0.30 0.30 1011.7
20260510014314 -17 195 0.0 0.0 0.00 0.30 0.30 1011.7
20260510013810 -17 140 0.0 3.2 0.00 0.30 0.30 1011.7
20260510013305 -17 195 0.0 0.0 0.00 0.30 0.30 1011.7
20260510012801 -17 191 0.0 3.2 0.00 0.30 0.30 1011.7
20260510012255 -17 165 0.0 3.2 0.00 0.30 0.30
20260510011755 -17 139 0.0 3.2 0.00 0.30 0.30
20260510011251 -17 195 0.0 3.2 0.00 0.30 0.30
20260510010748 -17 180 0.0 4.8 0.00 0.30 0.30
20260510010244 -17 205 0.0 4.8 0.00 0.30 0.30
20260510005741 -17 183 0.0 3.2 0.00 0.30 0.30
20260510005237 -17 205 0.0 3.2 0.00 0.30 0.30
20260510004735 -17 122 0.0 3.2 0.00 0.30 0.30
20260510004233 -17 203 0.0 4.8 0.00 0.30 0.30
20260510003730 -17 199 1.6 9.7 0.00 0.30 0.30
20260510003227 -17 166 1.6 6.4 0.00 0.30 0.30
20260510002725 -17 161 0.0 4.8 0.00 0.30 0.30
20260510002223 -17 166 1.6 9.7 0.00 0.30 0.30
20260510001720 -17 132 3.2 6.4 0.00 0.30 0.30
20260510001219 -17 201 0.0 4.8 0.00 0.30 0.30
20260510000714 -17 181 0.0 6.4 0.00 0.30 0.30
20260510000211 -17 162 1.6 4.8 0.00 0.30 0.30
20260509235708 -17 190 0.0 4.8 0.00 0.30 0.30
20260509235204 -17 173 0.0 4.8 0.00 0.30 0.30
20260509234701 -17 169 1.6 6.4 0.00 0.30 0.30
20260509234158 -17 150 3.2 6.4 0.00 0.30 0.30 1010.6
20260509233656 -17 154 0.0 6.4 0.00 0.30 0.30 1010.6
20260509233153 -17 122 3.2 4.8 0.00 0.30 0.30 1010.6
20260509232649 -17 95 1.6 4.8 0.00 0.30 0.30 1010.6
20260509232146 -17 195 0.0 3.2 0.00 0.30 0.30 1010.6
20260509231643 -17 351 0.0 4.8 0.00 0.30 0.30 1010.6
20260509231140 -17 189 0.0 3.2 0.00 0.30 0.30 1010.6
20260509230637 -17 117 0.0 3.2 0.00 0.30 0.30 1010.6
20260509230134 -17 145 1.6 3.2 0.00 0.30 0.30 1010.6
20260509225630 -17 229 0.0 3.2 0.00 0.30 0.30 1010.6
20260509225125 -17 89 0.0 1.6 0.00 0.30 0.30 1010.6
20260509224620 -17 230 0.0 1.6 0.00 0.30 0.30 1010.6
20260509224118 -17 89 1.6 3.2 0.00 0.30 0.30 1010.7
20260509223615 -17 246 0.0 1.6 0.00 0.30 0.30 1010.7
20260509223113 -17 13 0.0 1.6 0.00 0.30 0.30 1010.7
20260509222608 -17 300 1.6 3.2 0.00 0.30 0.30 1010.7
20260509222104 -17 123 1.6 4.8 0.00 0.30 0.30 1010.7
20260509221600 -17 219 0.0 4.8 0.00 0.30 0.30 1010.7
20260509221056 -17 269 0.0 3.2 0.00 0.30 0.30 1010.7
20260509220552 -17 218 0.0 1.6 0.00 0.30 0.30 1010.7
20260509220049 -17 263 0.0 1.6 0.00 0.30 0.30 1010.7
20260509215544 -17 200 1.6 3.2 0.00 0.30 0.30 1010.7
20260509215042 -17 293 0.0 3.2 0.00 0.30 0.30 1010.8
20260509214539 -17 278 1.6 3.2 0.00 0.30 0.30 1010.8
20260509214036 -17 244 1.6 3.2 0.00 0.30 0.30 1010.7
20260509213532 -17 311 1.6 3.2 0.00 0.30 0.30 1010.9
20260509213029 -17 297 1.6 4.8 0.00 0.30 0.30 1011.1
20260509212526 -17 18 3.2 3.2 0.00 0.30 0.30 1011.9
20260509212023 -17 113 3.2 4.8 0.00 0.30 0.30 1011.9
20260509211518 -17 153 3.2 8.0 0.00 0.30 0.30 1011.9
20260509211016 -17 158 1.6 3.2 0.00 0.30 0.30 1011.9
20260509210512 -17 185 3.2 6.4 0.00 0.30 0.30 1011.9
20260509210009 -17 240 0.0 4.8 0.00 0.30 0.30 1011.9
20260509205502 -17 242 0.0 3.2 0.00 0.30 0.30 1011.9
20260509204958 -17 193 3.2 4.8 0.00 0.30 0.30 1011.9
20260509204454 -17 356 8.0 12.9 0.00 0.30 0.30 1011.9
20260509203951 -17 3 1.6 4.8 0.00 0.30 0.30 1011.8
20260509203447 -17 55 0.0 3.2 0.00 0.30 0.30 1011.9
20260509202945 -17 255 0.0 3.2 0.00 0.30 0.30 1011.9
20260509202441 -17 327 3.2 4.8 0.00 0.30 0.30 1012.0
20260509201936 -17 269 0.0 3.2 0.00 0.30 0.30 1012.0
20260509201431 -17 128 0.0 3.2 0.00 0.30 0.30 1012.3
20260509200929 -17 254 1.6 3.2 0.00 0.30 0.30 1012.4
20260509200428 -17 117 1.6 3.2 0.00 0.30 0.30 1012.5
20260509195925 -17 354 3.2 4.8 0.00 0.30 0.30 1012.7
20260509195421 -17 357 1.6 4.8 0.00 0.30 0.30 1012.5
20260509194920 -17 358 1.6 3.2 0.00 0.30 0.30 1012.5
20260509194417 -17 269 0.0 4.8 0.00 0.30 0.30 1012.6
20260509193914 -17 25 3.2 6.4 0.00 0.30 0.30 1012.6
20260509193413 -17 335 0.0 3.2 0.00 0.30 0.30 1012.4
20260509192910 -17 67 0.0 8.0 0.00 0.30 0.30 1012.6
20260509192406 -17 244 1.6 4.8 0.00 0.30 0.30 1012.6
20260509191901 -17 337 4.8 6.4 0.00 0.30 0.30 1012.8
20260509191357 -17 258 0.0 6.4 0.00 0.30 0.30 1012.7
20260509190853 -17 283 0.0 6.4 0.00 0.30 0.30 1012.8
20260509190350 -17 303 1.6 8.0 0.00 0.30 0.30 1012.8
20260509185848 -17 0 3.2 4.8 0.00 0.30 0.30 1012.9
20260509185344 -17 279 3.2 6.4 0.00 0.30 0.30 1013.0
20260509184842 -17 105 1.6 3.2 0.00 0.30 0.30 1013.3
20260509184339 -17 142 0.0 4.8 0.00 0.30 0.30 1013.2
20260509183835 -17 129 0.0 4.8 0.00 0.30 0.30 1013.3
20260509183330 -17 268 1.6 3.2 0.00 0.30 0.30 1013.7
20260509182827 -17 299 0.0 3.2 0.00 0.30 0.30 1013.5
20260509182324 -17 33 0.0 3.2 0.00 0.30 0.30 1013.7
20260509181821 -17 329 0.0 1.6 0.00 0.30 0.30 1013.7
20260509181318 -17 284 0.0 1.6 0.00 0.30 0.30 1014.0
20260509180815 -17 255 0.0 1.6 0.00 0.30 0.30 1014.1
20260509180312 -17 258 1.6 4.8 0.00 0.30 0.30 1014.0
20260509175808 -17 212 0.0 1.6 0.00 0.30 0.30 1014.1